Airfield :
LOGIN :

Register | Disclaimer

   EN    FR    IT 

 










Legend :    VFR   Marginal VFR   IFR   Intensive IFR   Very Intensive IFR
Visi :
Ceiling :
>= 8 km
>= 3000ft
5 to 8 km
1000 to 3000 ft
1500m to 5 km
500 to 1000 ft
800 to 1500m
200 to 500 ft
< 800m
< 200 ft
Symbols :   Thunderstorms  Fog  Heavy snow  Heavy precipitations  Wind > 20 kt
SIGMETs :     Misc.  Thunderstorms  Icing  Turbulence  Mountain Waves  Volcanic Ashes







- Airport Elevation : 699 ft
- IATA code : PAD


EDLP - Paderborn Lippstadt

CURRENT METAR :
  • 241550Z 12012KT 9999 SCT024 SCT067 18/14 Q1019

EXPIRED METARs :
  • 241520Z 10011KT 9999 SCT024 SCT067 19/14 Q1019
  • 241450Z 10012KT 9999 SCT024 SCT091 18/13 Q1019
  • 241350Z 09013KT 9999 SCT022 BKN050 17/13 Q1020
  • 241320Z 10011KT 070V130 9999 BKN020 18/14 Q1020

TAF TAF EDLP
Valid from the 24 at 12:00 until the 25 at 12:00 UTC


241100Z 2412/2512 10010KT 9999 SCT040
PROB30
TEMPO 2417/2424 17015G25KT TSRA BKN030CB
BECMG 2417/2420 10005KT
BECMG 2507/2509 12010KT
No reported NOTAMs for that airfield.



MET'MAP, your aeronautical weather chart ! - Copyright ORBIFLY December 2007 - Disclaimer

ORBIFLY MET'MAP TEAM :

Programming & Development : Alexandra Zaïnal
Concept & Development : Baudouin d'Aumeries
Co-Development & Prog : Marc-Olivier Méhu
Technical & hardware support : Manuel Goepfert

Contact : metmap@orbifly.com




SOURCES & CREDITS :

   NOAA